www.pogodaiklimat.ru

Погода и климат >> Архив погоды >> Австралия >> Wyndham Aero


ПОГОДА в Wyndham Aero

  • Прогноз погоды в Wyndham Aero
  • Монитор погоды в Wyndham Aero
  • Климат города

АРХИВ ПОГОДЫ в Wyndham Aero

Время (UTC), дата Ветер
(напр.,м/с)
 
Видим.   Явления Облачность Т
(С)
Тd
(С)
f
(%)
Тe
(С)
Тes
(С)
Комфортность P
(гПа)
Po
(гПа)
Тmin
(С)
Tmax
(С)
R
(мм)
R24
(мм)
S
(см)
07 10.12 С 5 н/о н/о +41.9 +17.8 25 +45 +45 опасность
перегрева
1000.7 1000.2
08 10.12 С 8 н/о н/о +38.4 +23.6 43 +49 +49 опасность
перегрева
1000.8 1000.3
09 10.12 С 8 н/о н/о +36.3 +24.2 50 +48 +48 опасность
перегрева
1001.8 1001.3
10 10.12 С 8 н/о н/о +33.7 +24.6 59 +47 +47 опасность
перегрева
1002.4 1001.9
11 10.12 С 8 н/о н/о +33.2 +24.1 59 +45 +45 опасность
перегрева
1003.3 1002.8
12 10.12 СЗ 4 н/о н/о +33.5 +24.4 59 +46 +46 опасность
перегрева
1004.4 1003.9
13 10.12 штиль 0 н/о н/о +32.8 +24.8 63 +46 +46 опасность
перегрева
1004.6 1004.1
14 10.12 В 2 н/о н/о +32.1 +24.7 65 +45 +45 опасность
перегрева
1004.6 1004.1
15 10.12 ЮВ 4 н/о н/о +31.2 +25.3 71 +45 +45 опасность
перегрева
1004.2 1003.7
16 10.12 ЮВ 3 н/о н/о +30.4 +25.5 75 +45 +45 опасность
перегрева
1003.5 1003.0
19 10.12 В 2 н/о н/о +29.3 +25.9 82 +44 +44 опасность
перегрева
1003.4 1002.9
20 10.12 штиль 0 н/о н/о +29.5 +25.3 78 +43 +43 опасность
перегрева
1003.9 1003.4
21 10.12 ЮВ 1 н/о н/о +28.7 +24.7 79 +41 +41 опасность
перегрева
1005.0 1004.5
23 10.12 З 4 н/о н/о +33.4 +23.4 56 +44 +44 опасность
перегрева
1006.2 1005.7
22 10.12 З 4 н/о н/о +31.9 +24.0 63 +44 +44 опасность
перегрева
1005.7 1005.2
00 11.12 З 4 н/о н/о +34.7 +22.7 50 +44 +44 опасность
перегрева
1006.5 1006.0
01 11.12 З 4 н/о н/о +36.5 +21.9 43 +45 +45 опасность
перегрева
1006.3 1005.8
02 11.12 З 4 н/о н/о +38.2 +21.4 38 +45 +45 опасность
перегрева
1005.4 1004.9
03 11.12 З 3 н/о н/о +39.6 +20.8 34 +46 +46 опасность
перегрева
1004.3 1003.8
05 11.12 З 4 н/о н/о +41.9 +17.8 25 +45 +45 опасность
перегрева
1002.0 1001.5
04 11.12 СЗ 3 н/о н/о +41.5 +20.4 30 +47 +47 опасность
перегрева
1003.1 1002.6
06 11.12 СЗ 2 н/о н/о +43.6 +16.5 21 +45 +45 опасность
перегрева
1000.7 1000.2
07 11.12 С 4 н/о н/о +43.4 +14.7 19 +44 +44 опасность
перегрева
1000.4 999.9
08 11.12 З 4 н/о н/о +43.3 +13.8 18 +43 +43 опасность
перегрева
999.9 999.4
09 11.12 С 10 н/о н/о +37.3 +24.1 47 +49 +49 опасность
перегрева
1001.1 1000.6
11 11.12 СЗ 6 н/о н/о +36.0 +23.6 49 +47 +47 опасность
перегрева
1003.3 1002.8
10 11.12 С 7 н/о н/о +35.2 +25.1 56 +49 +49 опасность
перегрева
1002.1 1001.6
12 11.12 СЗ 6 н/о н/о +35.4 +20.5 42 +42 +42 опасность
перегрева
1003.6 1003.1
13 11.12 З 6 н/о н/о +34.7 +21.0 45 +42 +42 опасность
перегрева
1004.3 1003.8
14 11.12 З 5 н/о н/о +34.3 +21.4 47 +42 +42 опасность
перегрева
1004.5 1004.0
15 11.12 З 5 н/о н/о +33.9 +22.0 50 +43 +43 опасность
перегрева
1004.4 1003.9
17 11.12 З 4 н/о н/о +32.6 +21.8 53 +41 +41 опасность
перегрева
1002.5 1002.0
16 11.12 З 5 н/о н/о +33.3 +22.4 53 +43 +43 опасность
перегрева
1003.5 1003.0
18 11.12 З 5 н/о н/о +32.5 +21.7 53 +41 +41 опасность
перегрева
1002.1 1001.6
19 11.12 З 4 н/о н/о +32.0 +22.4 57 +41 +41 опасность
перегрева
1002.8 1002.3
20 11.12 З 5 н/о н/о +31.7 +22.4 58 +41 +41 опасность
перегрева
1003.1 1002.6
21 11.12 З 5 н/о н/о +31.4 +22.7 60 +41 +41 опасность
перегрева
1003.7 1003.2
23 11.12 З 6 н/о н/о +33.4 +22.5 53 +43 +43 опасность
перегрева
1004.5 1004.0
22 11.12 З 6 н/о н/о +32.1 +22.5 57 +42 +42 опасность
перегрева
1004.4 1003.9
00 12.12 З 5 н/о н/о +35.0 +22.7 49 +45 +45 опасность
перегрева
1004.4 1003.9
01 12.12 З 5 н/о н/о +37.0 +21.2 40 +44 +44 опасность
перегрева
1003.8 1003.3 +31.5
02 12.12 ЮЗ 5 н/о н/о +39.4 +19.6 32 +44 +44 опасность
перегрева
1003.0 1002.5
03 12.12 ЮЗ 3 н/о н/о +40.8 +19.3 29 +45 +45 опасность
перегрева
1002.0 1001.5
05 12.12 З 5 н/о н/о +44.0 +14.4 18 +45 +45 опасность
перегрева
1000.1 999.6
04 12.12 З 3 н/о н/о +42.5 +18.3 25 +46 +46 опасность
перегрева
1000.8 1000.3
06 12.12 ЮЗ 4 н/о н/о +44.9 +15.1 18 +46 +46 опасность
перегрева
999.1 998.6
07 12.12 ЮЗ 5 н/о н/о +44.5 +14.8 18 +45 +45 опасность
перегрева
998.5 998.0
08 12.12 С 10 н/о н/о +39.6 +23.0 39 +49 +49 опасность
перегрева
998.6 998.1
09 12.12 С 10 н/о н/о +37.3 +23.4 45 +48 +48 опасность
перегрева
998.4 997.9
11 12.12 В 3 н/о н/о +34.8 +25.0 57 +48 +48 опасность
перегрева
1000.0 999.5
10 12.12 С 8 н/о н/о +35.3 +24.9 55 +49 +49 опасность
перегрева
998.8 998.3
12 12.12 В 4 н/о н/о +34.4 +25.5 60 +49 +49 опасность
перегрева
1002.3 1001.8
13 12.12 В 4 н/о н/о +33.0 +26.3 68 +49 +49 опасность
перегрева
1002.4 1001.9 +45.9
14 12.12 В 4 н/о н/о +32.7 +26.5 70 +50 +50 опасность
перегрева
1002.6 1002.1
15 12.12 ЮВ 5 н/о н/о +32.3 +26.4 71 +49 +49 опасность
перегрева
1002.2 1001.7
17 12.12 В 6 н/о н/о +32.2 +26.7 73 +50 +50 опасность
перегрева
1002.1 1001.6
16 12.12 ЮВ 6 н/о н/о +32.3 +26.4 71 +49 +49 опасность
перегрева
1002.3 1001.8
18 12.12 В 4 н/о н/о +32.2 +26.5 72 +49 +49 опасность
перегрева
1002.6 1002.1
19 12.12 В 4 н/о н/о +31.7 +26.7 75 +49 +49 опасность
перегрева
1002.8 1002.3
20 12.12 В 3 н/о н/о +31.6 +26.4 74 +48 +48 опасность
перегрева
1002.9 1002.4
21 12.12 СЗ 7 н/о н/о +31.9 +23.7 62 +43 +43 опасность
перегрева
1004.0 1003.5
23 12.12 СЗ 7 н/о н/о +31.8 +24.1 64 +44 +44 опасность
перегрева
1006.2 1005.7
22 12.12 СЗ 7 н/о н/о +31.9 +24.5 65 +45 +45 опасность
перегрева
1005.4 1004.9
00 13.12 СЗ 8 н/о н/о +32.6 +24.4 62 +45 +45 опасность
перегрева
1006.1 1005.6
01 13.12 СЗ 8 н/о н/о +33.1 +24.3 60 +45 +45 опасность
перегрева
1006.3 1005.8 +31.4
02 13.12 СЗ 10 н/о н/о +34.7 +23.4 52 +45 +45 опасность
перегрева
1005.4 1004.9
03 13.12 СЗ 11 н/о н/о +36.3 +23.9 49 +48 +48 опасность
перегрева
1003.9 1003.4
05 13.12 З 10 н/о н/о +37.2 +22.1 42 +46 +46 опасность
перегрева
1002.7 1002.2
04 13.12 З 11 н/о н/о +37.1 +22.8 44 +47 +47 опасность
перегрева
1003.4 1002.9
06 13.12 З 9 н/о н/о +38.1 +21.7 39 +46 +46 опасность
перегрева
1001.6 1001.1
07 13.12 З 9 н/о н/о +39.0 +21.6 37 +46 +46 опасность
перегрева
1000.9 1000.4
08 13.12 З 8 н/о н/о +39.5 +20.7 34 +46 +46 опасность
перегрева
1001.0 1000.5
09 13.12 З 9 н/о н/о +38.0 +20.8 37 +44 +44 опасность
перегрева
1001.3 1000.8
11 13.12 З 7 н/о н/о +35.9 +22.1 45 +44 +44 опасность
перегрева
1002.4 1001.9
10 13.12 З 8 н/о н/о +36.5 +21.5 42 +44 +44 опасность
перегрева
1001.3 1000.8
12 13.12 З 7 н/о н/о +35.1 +22.4 48 +44 +44 опасность
перегрева
1002.8 1002.3
13 13.12 З 4 н/о н/о +34.5 +22.6 50 +44 +44 опасность
перегрева
1004.3 1003.8 +39.8
14 13.12 З 5 н/о н/о +34.0 +22.1 50 +43 +43 опасность
перегрева
1004.5 1004.0
15 13.12 ЮЗ 5 н/о н/о +33.6 +22.1 51 +42 +42 опасность
перегрева
1004.7 1004.2
17 13.12 СВ 3 н/о н/о +24.4 +22.7 90 +32 +32 очень
душно
1006.4 1005.9
16 13.12 В 6 н/о туман местами н/о +24.5 +22.0 86 +32 +32 очень
душно
1006.7 1006.2
18 13.12 ЮЗ 8 н/о н/о +25.1 +23.2 89 +34 +34 очень
душно
1006.8 1006.3
19 13.12 ЮЗ 3 н/о туман местами н/о +25.2 +23.3 89 +34 +34 очень
душно
1006.2 1005.7
20 13.12 СЗ 2 н/о н/о +25.8 +23.7 88 +35 +35 очень
душно
1005.8 1005.3
21 13.12 СЗ 4 н/о н/о +25.9 +23.8 88 +35 +35 очень
душно
1006.2 1005.7
23 13.12 СЗ 3 н/о н/о +27.2 +23.9 82 +37 +37 очень
душно
1006.4 1005.9
22 13.12 СЗ 4 н/о {туман} н/о +26.7 +24.0 85 +37 +37 очень
душно
1006.5 1006.0
00 14.12 З 3 н/о н/о +28.0 +24.2 80 +39 +39 очень
душно
1006.5 1006.0
01 14.12 З 4 н/о {туман} н/о +30.1 +24.5 72 +42 +42 опасность
перегрева
1006.1 1005.6 +24.0
02 14.12 З 4 н/о н/о +31.4 +23.8 64 +43 +43 опасность
перегрева
1005.2 1004.7
03 14.12 СЗ 4 н/о н/о +33.4 +23.7 57 +45 +45 опасность
перегрева
1004.5 1004.0
05 14.12 ЮЗ 4 н/о н/о +36.8 +21.4 41 +44 +44 опасность
перегрева
1002.5 1002.0
04 14.12 З 3 н/о н/о +35.5 +22.4 47 +45 +45 опасность
перегрева
1003.7 1003.2
06 14.12 З 3 н/о н/о +38.1 +21.3 38 +45 +45 опасность
перегрева
1001.5 1001.0
07 14.12 З 2 н/о н/о +38.4 +20.2 35 +44 +44 опасность
перегрева
1001.0 1000.5
08 14.12 С 4 н/о н/о +38.4 +20.2 35 +44 +44 опасность
перегрева
1000.9 1000.4
09 14.12 С 4 н/о н/о +37.0 +22.7 44 +46 +46 опасность
перегрева
1001.4 1000.9
11 14.12 С 6 н/о н/о +32.0 +24.1 63 +44 +44 опасность
перегрева
1002.6 1002.1
10 14.12 С 6 н/о н/о +32.9 +24.1 60 +45 +45 опасность
перегрева
1002.2 1001.7
12 14.12 ЮВ 2 н/о н/о +31.7 +24.6 66 +44 +44 опасность
перегрева
1003.2 1002.7
13 14.12 Ю 8 н/о н/о +31.6 +25.0 68 +45 +45 опасность
перегрева
1005.2 1004.7 +39.2
14 14.12 ЮЗ 6 н/о н/о +29.7 +21.4 61 +38 +38 очень
душно
1005.1 1004.6
15 14.12 С 3 н/о н/о +28.7 +20.4 61 +35 +35 очень
душно
1003.2 1002.7
17 14.12 З 4 н/о н/о +28.5 +20.8 63 +36 +36 очень
душно
1002.5 1002.0
16 14.12 ЮЗ 4 н/о н/о +28.5 +21.5 66 +36 +36 очень
душно
1003.5 1003.0
18 14.12 СЗ 4 н/о н/о +28.5 +21.5 66 +36 +36 очень
душно
1003.1 1002.6
19 14.12 З 3 н/о н/о +28.5 +22.0 68 +37 +37 очень
душно
1003.1 1002.6
20 14.12 СЗ 5 н/о н/о +29.0 +22.5 68 +38 +38 очень
душно
1003.3 1002.8
21 14.12 З 6 н/о н/о +29.0 +22.7 69 +38 +38 очень
душно
1004.1 1003.6
23 14.12 З 4 н/о н/о +31.2 +23.3 63 +42 +42 опасность
перегрева
1005.4 1004.9
22 14.12 З 4 н/о н/о +29.6 +23.1 68 +40 +40 очень
душно
1004.9 1004.4
00 15.12 З 5 н/о н/о +32.5 +22.9 57 +43 +43 опасность
перегрева
1005.5 1005.0
01 15.12 З 6 н/о н/о +34.0 +23.1 53 +44 +44 опасность
перегрева
1005.2 1004.7 +27.9
02 15.12 З 5 н/о н/о +35.3 +22.3 47 +44 +44 опасность
перегрева
1004.5 1004.0
03 15.12 СЗ 5 н/о н/о +37.0 +22.3 43 +46 +46 опасность
перегрева
1003.7 1003.2
05 15.12 СЗ 4 н/о н/о +39.2 +21.4 36 +46 +46 опасность
перегрева
1001.8 1001.3
04 15.12 З 4 н/о н/о +38.2 +21.4 38 +45 +45 опасность
перегрева
1002.7 1002.2
06 15.12 СЗ 4 н/о н/о +40.4 +20.5 32 +46 +46 опасность
перегрева
1001.0 1000.5
07 15.12 СЗ 5 н/о н/о +40.5 +20.6 32 +46 +46 опасность
перегрева
1000.4 999.9
08 15.12 С 6 н/о н/о +39.1 +22.2 38 +47 +47 опасность
перегрева
1000.1 999.6
09 15.12 С 7 н/о н/о +36.0 +23.6 49 +47 +47 опасность
перегрева
1000.2 999.7
11 15.12 С 8 н/о н/о +33.0 +23.6 58 +44 +44 опасность
перегрева
1001.8 1001.3
10 15.12 С 8 н/о н/о +33.8 +23.8 56 +45 +45 опасность
перегрева
1001.0 1000.5
12 15.12 С 6 н/о н/о +32.8 +24.3 61 +45 +45 опасность
перегрева
1002.2 1001.7
13 15.12 В 4 н/о н/о +31.6 +25.7 71 +47 +47 опасность
перегрева
1003.4 1002.9 +41.2
14 15.12 В 3 н/о н/о +31.3 +26.3 75 +47 +47 опасность
перегрева
1003.7 1003.2
15 15.12 В 5 н/о н/о +30.8 +26.1 76 +46 +46 опасность
перегрева
1003.5 1003.0
17 15.12 В 4 н/о н/о +30.0 +26.0 79 +45 +45 опасность
перегрева
1003.3 1002.8
16 15.12 ЮВ 6 н/о н/о +30.4 +26.3 79 +46 +46 опасность
перегрева
1003.2 1002.7
18 15.12 В 1 н/о н/о +30.5 +25.3 74 +44 +44 опасность
перегрева
1003.4 1002.9
19 15.12 СЗ 4 н/о н/о +30.9 +23.8 66 +42 +42 опасность
перегрева
1003.4 1002.9
20 15.12 СЗ 4 н/о н/о +30.7 +23.9 67 +42 +42 опасность
перегрева
1003.9 1003.4
21 15.12 СЗ 2 н/о н/о +30.0 +23.9 70 +41 +41 опасность
перегрева
1005.0 1004.5
23 15.12 СЗ 5 н/о н/о +31.9 +23.7 62 +43 +43 опасность
перегрева
1006.6 1006.1
22 15.12 СЗ 4 н/о н/о +31.1 +23.7 65 +42 +42 опасность
перегрева
1006.4 1005.9
00 16.12 СЗ 4 н/о н/о +32.9 +23.2 57 +43 +43 опасность
перегрева
1006.6 1006.1
01 16.12 З 5 н/о н/о +35.0 +23.7 52 +46 +46 опасность
перегрева
1006.4 1005.9 +30.0
02 16.12 З 5 н/о н/о +36.2 +23.4 48 +47 +47 опасность
перегрева
1005.6 1005.1
03 16.12 З 4 н/о н/о +37.5 +22.8 43 +47 +47 опасность
перегрева
1004.7 1004.2
05 16.12 З 4 н/о н/о +39.9 +20.6 33 +46 +46 опасность
перегрева
1003.1 1002.6
04 16.12 З 4 н/о н/о +39.5 +22.5 38 +48 +48 опасность
перегрева
1003.8 1003.3
06 16.12 З 4 н/о н/о +40.2 +20.3 32 +46 +46 опасность
перегрева
1002.1 1001.6
07 16.12 З 3 н/о н/о +40.9 +19.3 29 +45 +45 опасность
перегрева
1001.4 1000.9
08 16.12 С 7 н/о н/о +39.6 +23.0 39 +49 +49 опасность
перегрева
1001.1 1000.6
09 16.12 С 8 н/о н/о +35.8 +23.7 50 +47 +47 опасность
перегрева
1001.6 1001.1
11 16.12 С 7 н/о н/о +33.5 +24.1 58 +45 +45 опасность
перегрева
1003.7 1003.2
10 16.12 С 10 н/о н/о +33.5 +24.9 61 +47 +47 опасность
перегрева
1002.3 1001.8
12 16.12 В 7 н/о н/о +33.3 +24.5 60 +46 +46 опасность
перегрева
1005.7 1005.2
13 16.12 В 9 н/о н/о +26.2 +20.8 72 +33 +33 очень
душно
1007.4 1006.9 +42.1
14 16.12 Ю 7 н/о н/о +31.3 +17.6 44 +35 +35 очень
душно
1006.0 1005.5
15 16.12 Ю 10 н/о н/о +32.2 +16.1 38 +35 +35 очень
душно
1005.3 1004.8
17 16.12 З 3 н/о н/о +31.5 +19.2 48 +37 +37 очень
душно
1002.4 1001.9
16 16.12 ЮВ 3 н/о н/о +31.9 +18.5 45 +37 +37 очень
душно
1002.9 1002.4
18 16.12 ЮВ 6 н/о н/о +30.4 +19.7 53 +37 +37 очень
душно
1003.7 1003.2
19 16.12 В 6 н/о н/о +28.6 +19.8 59 +35 +35 очень
душно
1004.2 1003.7
20 16.12 В 5 н/о н/о +27.8 +20.4 64 +34 +34 очень
душно
1004.5 1004.0
21 16.12 В 2 н/о н/о +27.9 +20.5 64 +35 +35 очень
душно
1005.0 1004.5
23 16.12 В 3 н/о н/о +32.0 +21.5 54 +40 +40 очень
душно
1006.1 1005.6
22 16.12 штиль 0 н/о н/о +29.7 +20.5 58 +37 +37 очень
душно
1005.4 1004.9
00 17.12 В 3 н/о н/о +32.9 +21.4 51 +41 +41 опасность
перегрева
1006.5 1006.0
01 17.12 ЮЗ 3 н/о н/о +34.2 +20.2 44 +41 +41 опасность
перегрева
1006.3 1005.8 +25.0
02 17.12 СЗ 3 н/о н/о +35.5 +19.8 40 +41 +41 опасность
перегрева
1005.6 1005.1
03 17.12 З 2 н/о н/о +36.5 +19.9 38 +42 +42 опасность
перегрева
1005.0 1004.5
05 17.12 Ю 3 н/о н/о +38.1 +18.5 32 +42 +42 опасность
перегрева
1003.5 1003.0
04 17.12 ЮВ 2 н/о н/о +37.9 +19.3 34 +43 +43 опасность
перегрева
1004.2 1003.7
06 17.12 ЮВ 3 н/о н/о +39.5 +19.2 31 +44 +44 опасность
перегрева
1002.6 1002.1
07 17.12 СВ 2 н/о н/о +40.1 +18.7 29 +44 +44 опасность
перегрева
1001.9 1001.4

 

Местоположение метеостанции Wyndham Aero (Западная Австралия, Австралия): широта -15.50 долгота 128.15 высота над уровнем моря 4 м.

В архиве по умолчанию представлена погода в Wyndham Aero за последнюю неделю. Архивные данные за месяц целиком и за предыдущие месяцы, начиная с января 2011 года, Вы можете получить, выбрав интересующий диапазон дат из раскрывающегося списка и нажав кнопку "Ввод!".


*Определитесь, кто Вы:
робот инопланетянин человек

Внимание! Время в таблицах - всемирное. Для получения местного времени необходимо прибавить поправку, которая в Wyndham Aero равна 8 ч.

Смотрите также архив погоды в соседних городах и на ближайших метеорологических станциях:

Погода в Kununurra (Западная Австралия, Австралия) (68 км)
Погода в Argyle Aero (Западная Австралия, Австралия) (130 км)
Погода в Port Keats Aero (Северная территория, Австралия) (203 км)
Погода в Kalumburu (Западная Австралия, Австралия) (209 км)
Погода в Truscott (Западная Австралия, Австралия) (247 км)
Погода в Troughton Island (Западная Австралия, Австралия) (290 км)
Погода в Manbulloo Csiro (Северная территория, Австралия) (291 км)
Погода в Halls Creek Airport (Западная Австралия, Австралия) (308 км)
Погода в Victoria River Downs (Северная территория, Австралия) (323 км)
Погода в Cape Don Lighthouse (Северная территория, Австралия) (375 км)

Пояснения к столбцам:

Ветер - указаны скорость ветра в м/с - средняя за 10 мин, порывы в срок и между сроками (в фигурных скобках) и направление, откуда дует ветер: С - северный, СВ - северо-восточный, В - восточный, ЮВ - юго-восточный, Ю - южный, ЮЗ - юго-западный, З - западный, СЗ - северо-западный.
Видимость - горизонтальная дальность видимости в метрах или километрах. При видимости от 1 до 10 км при отсутствии осадков обычно наблюдается дымка, при ухудшении видимости до 1 км и менее - туман. В сухую погоду видимость может ухудшаться дымом, пылью или мглою.
Явления - указаны атмосферные явления, наблюдавшиеся в срок или в последний час перед сроком; фигурными скобками обозначены явления, наблюдавшиеся между сроками (за 1-3 часа до срока); квадратными скобками обозначены град или гололедные отложения с указанием их диаметра в мм.
Облачность - указаны через наклонную черту общая и нижняя облачность в баллах и высота нижней границы облаков в метрах; квадратными скобками обозначены формы облаков: Ci - перистые, Cs - перисто-слоистые, Cc - перисто-кучевые, Ac - высококучевые, As - высокослоистые, Sc - слоисто-кучевые, Ns - слоисто-дождевые, Cu - кучевые, Cb - кучево-дождевые. Подробнее классификацию облаков см. в Атласе облаков (PDF).
T - Температура воздуха - температура, измеренная на высоте 2 м над землей.
Td - Температура точки росы - температура, при понижении до которой содержащийся в воздухе водяной пар достигнет насыщения.
f - Относительная влажность воздуха - влажноcть воздуха, измеренная на высоте 2 м над землей.
Te - Эффективная температура - температура, которую ощущает одетый по сезону человек в тени. Характеристика душности погоды. При расчете учитывается влияние влажности воздуха и скорости ветра на теплоощущения человека.
Tes - Эффективная температура на солнце - температура, которую ощущает человек, с поправкой на солнечный нагрев. Характеристика знойности погоды. Зависит от высоты солнца над горизонтом, облачности и скорости ветра. Ночью, в пасмурную погоду, а также при ветре 12 м/с и более поправка равна нулю.
P - Атмосферное давление - приведенное к уровню моря атмосферное давление.
Po - Атмосферное давление - измеренное на уровне метеостанции атмосферное давление.
Tmin - Минимальная температура - минимум температуры воздуха на высоте 2 м над землей.
Tmax - Максимальная температура - максимум температуры воздуха на высоте 2 м над землей.
R - Количество осадков - Количество выпавших осадков за период времени, мм. При наведении курсора мыши на число - период времени, за который выпало указанное количество осадков.
R24 - Количество осадков - Количество выпавших осадков за 24 часа, мм.
S - Снежный покров - Высота снежного покрова, см. При наведении курсора мыши на число - состояние снежного покрова и степень покрытия местности в баллах.